Location: Eimen
(51.8766°N, 9.7806°E)
Time: 15:24:38
(UTC+00:00)

Envisat - Pass Details

Date: 21 August 2024
Orbit: 762 x 764 km, 98.3° (Epoch: 09 September)

Event Time Altitude Azimuth Distance (km) Brightness Sun altitude
Rises 01:31:31 0° 24° (NNE) 3,240 7.8 -20.5°
Reaches altitude 10° 01:34:19 10° 39° (NE) 2,308 6.7 -20.2°
Maximum altitude 01:38:18 23° 91° (E) 1,595 5.0 -19.9°
Drops below altitude 10° 01:42:15 10° 142° (SE) 2,294 5.3 -19.5°
Enters shadow 01:43:22 - 150° (SSE) 2,647 5.6 -19.4°
